Other Surface Observations
Issued by NWS Upton, NY

Home | Current Version | Previous Version | Text Only | Print | Product List | Glossary On
Versions: 1 2 3 4 5 6 7 8 9 10 11 12 13 14 15 16 17 18 19 20 21 22 23 24 25 26 27 28 29 30 31 32 33 34 35 36 37 38 39 40 41 42 43 44 45 46 47 48 49 50
000
SXUS51 KOKX 230057
OSOOKX
NEW YORK CITY METROPOLITAN AREA WEATHER ROUNDUP
National Weather Service New York NY
800 PM EST WED NOV 22 2017

CITY           SKY/WX    TMP DP  RH WIND       PRES   REMARKS
Central Park   MOCLDY    40  24  53 NW8G22    30.07R WCI  34
LaGuardia APRT CLEAR     42  27  55 NW24G30   30.04R
Kennedy INTL   PTCLDY    40  26  57 NW21G29   30.05R WCI  30
Newark Liberty MOCLDY    40  23  50 NW22G29   30.07R WCI  30
Teterboro APRT MOCLDY    39  23  52 NW15G25   30.04R WCI  31
Bronx Bot Gard   N/A     39  23  52 W12       30.02S WCI  32
Bronx Lehman C   N/A     39  32  75 NW15        N/A  WCI  31
Queens College   N/A     39  32  75 NW14        N/A  WCI  31
Breezy Point     N/A     39 N/A N/A NW16G25     N/A  WCI  30
Brooklyn Coll    N/A     39  32  75 NW16G30     N/A  WCI  30
Staten Island    N/A     39  32  75 NW10        N/A  WCI  32

>>>>>>>>>>>>>>>>>>>>>>>>>>>>>>>>> KEY <<<<<<<<<<<<<<<<<<<<<<<<<<<<<<<
> SKY/WX - SKY CONDITION/PRESENT    : R : WCI - WIND CHILL INDEX    <
>          WEATHER                  : E : VSB - VISIBILITY IN MILES <
> TMP    - TEMPERATURE IN DEG F     : M : HX  - HEAT INDEX          <
> DP     - DEW POINT TEMPERATURE    : A : TC  - TEMPERATURE IN      <
> RH     - RELATIVE HUMIDITY        : R :       CELSIUS             <
> WIND   - DIRECTION/SPEED (MPH)    : K : VRB - VARIABLE WIND  DIR  <
> PRES   - PRESSURE (IN HG)         : S :                           <
>>>>>>>>>>>>>>>>>>>>>>>>>>>>>>>>> KEY <<<<<<<<<<<<<<<<<<<<<<<<<<<<<<<



USA.gov is the U.S. government's official web portal to all federal, state and local government web resources and services.